Location: Albany
(35.0000°S, 118.0000°E)
Time: 18:56:20
(UTC-05:00)

ADEOS Rocket - Visible Passes

Search period start: 22 November 2017 00:00
Search period end: 02 December 2017 00:00
Orbit: 860 x 1306 km, 98.8° (Epoch: 22 November)

Date Brightness Start Highest point End Pass type
(mag) Time Alt. Az. Time Alt. Az. Time Alt. Az.
22 Nov 5.0 09:48:27 14° ESE 09:48:30 14° ESE 09:51:08 10° SE visible
22 Nov 3.7 11:35:24 42° SSW 11:35:24 42° SSW 11:39:01 10° SSW visible
23 Nov 3.9 10:45:42 38° SE 10:45:42 38° SE 10:49:46 10° S visible
23 Nov 4.8 12:32:38 16° WSW 12:32:38 16° WSW 12:34:18 10° SW visible
24 Nov 4.8 09:56:00 16° ESE 09:56:00 16° ESE 09:59:13 10° SSE visible
24 Nov 3.8 11:42:57 38° SW 11:42:57 38° SW 11:46:29 10° SSW visible
25 Nov 3.7 10:53:15 43° SSE 10:53:15 43° SSE 10:57:23 10° S visible
25 Nov 4.9 12:40:11 13° WSW 12:40:11 13° WSW 12:41:19 10° SW visible
26 Nov 4.7 10:03:33 19° ESE 10:03:33 19° ESE 10:07:10 10° SSE visible
26 Nov 3.9 11:50:30 34° SW 11:50:30 34° SW 11:53:54 10° SSW visible
27 Nov 3.5 11:00:48 48° SSE 11:00:48 48° SSE 11:05:00 10° S visible
27 Nov 5.0 12:47:45 11° WSW 12:47:45 11° WSW 12:48:08 10° WSW visible
28 Nov 4.5 10:11:06 22° ESE 10:11:06 22° ESE 10:15:01 10° SSE visible
28 Nov 4.1 11:58:03 30° WSW 11:58:03 30° WSW 12:01:17 10° SSW visible
29 Nov 3.4 11:08:21 52° S 11:08:21 52° S 11:12:35 10° S visible
30 Nov 4.3 10:18:39 26° ESE 10:18:39 26° ESE 10:22:50 10° SSE visible
30 Nov 4.2 12:05:36 26° WSW 12:05:36 26° WSW 12:08:39 10° SW visible
01 Dec 3.3 11:15:54 54° S 11:15:54 54° S 11:20:08 10° SSW visible
